�N����,����,�~����,�C��,���x,�C��,����,���ϕ���,�ő�u�ԕ���,�ő厞����,���˗�,�I�_���x,�n�����x,�ő啗���N��,DTYPE
"24/01/24","00:10",0.0,-0.2,66.5,1003.1,299.1,2.5,3.6,342.8,0.00,-5.6,6.9,"00:03:44",1
"24/01/24","00:20",0.0,-0.2,66.1,1003.1,309.2,2.3,3.7,338.4,0.00,-5.7,6.9,"00:10:02",1
"24/01/24","00:30",0.0,-0.2,66.5,1003.6,322.8,3.0,4.5,335.1,0.00,-5.6,6.9,"00:24:32",1
"24/01/24","00:40",0.0,-0.2,66.7,1003.6,322.7,3.0,6.6,344.2,0.00,-5.6,6.6,"00:36:40",1
"24/01/24","00:50",0.0,-0.2,66.4,1003.1,319.5,2.3,4.3,341.6,0.00,-5.7,6.7,"00:42:48",1
"24/01/24","01:00",0.0,-0.2,66.1,1002.9,304.9,2.3,4.1,331.9,0.00,-5.7,6.7,"00:55:36",1
"24/01/24","01:10",0.0,-0.4,66.1,1003.1,327.7,1.5,2.7,339.1,0.00,-5.9,6.7,"01:00:08",1
"24/01/24","01:20",0.0,-0.6,65.7,1002.9,292.9,1.1,2.4,337.5,0.00,-6.2,6.7,"01:18:00",1
"24/01/24","01:30",0.0,-0.4,65.1,1003.4,274.3,1.3,3.5,253.3,0.00,-6.1,6.6,"01:21:12",1
"24/01/24","01:40",0.0,-0.7,67.1,1003.6,149.9,1.1,3.2,227.8,0.00,-6.0,6.7,"01:30:40",1
"24/01/24","01:50",0.0,-0.6,66.2,1003.1,62.4,1.0,2.8,97.5,0.00,-6.1,6.5,"01:41:52",1
"24/01/24","02:00",0.0,-0.7,65.5,1003.4,331.6,1.3,2.7,351.3,0.00,-6.3,6.6,"01:51:04",1
"24/01/24","02:10",0.0,-1.0,66.5,1003.4,311.7,1.5,2.9,335.5,0.00,-6.4,6.3,"02:03:36",1
"24/01/24","02:20",0.0,-1.2,67.3,1003.4,294.1,0.7,1.8,354.3,0.00,-6.4,6.5,"02:10:16",1
"24/01/24","02:30",0.0,-1.2,68.2,1003.4,344.4,1.0,2.0,339.1,0.00,-6.3,6.4,"02:28:36",1
"24/01/24","02:40",0.0,-1.7,69.5,1003.4,284.0,1.0,1.7,347.1,0.00,-6.5,6.4,"02:30:08",1
"24/01/24","02:50",0.0,-1.8,70.6,1002.9,315.7,0.8,1.4,313.7,0.00,-6.4,6.3,"02:48:08",1
"24/01/24","03:00",0.0,-1.8,71.7,1003.1,328.7,1.1,2.8,321.8,0.00,-6.2,6.4,"02:58:42",1
"24/01/24","03:10",0.0,-1.4,71.3,1003.1,300.5,1.8,3.1,320.7,0.00,-5.9,6.4,"03:03:44",1
"24/01/24","03:20",0.0,-1.4,70.6,1002.9,293.4,1.6,2.4,304.6,0.00,-6.0,6.2,"03:10:40",1
"24/01/24","03:30",0.0,-1.5,70.4,1003.1,307.9,1.7,2.5,313.2,0.00,-6.1,6.1,"03:21:44",1
"24/01/24","03:40",0.0,-1.3,69.9,1003.1,325.9,1.8,3.3,343.5,0.00,-6.0,6.1,"03:36:48",1
"24/01/24","03:50",0.0,-1.3,69.8,1003.4,315.0,1.8,3.1,337.6,0.00,-6.1,5.8,"03:41:36",1
"24/01/24","04:00",0.0,-1.4,69.9,1003.1,325.9,1.3,3.5,339.5,0.00,-6.1,6.0,"03:54:08",1
"24/01/24","04:10",0.0,-1.3,69.4,1002.6,301.0,1.5,2.9,324.4,0.00,-6.1,6.1,"04:08:24",1
"24/01/24","04:20",0.0,-1.2,68.7,1003.4,251.7,1.3,3.6,233.9,0.00,-6.2,5.8,"04:12:56",1
"24/01/24","04:30",0.0,-1.4,68.8,1003.4,301.4,1.3,2.8,331.8,0.00,-6.3,5.7,"04:24:54",1
"24/01/24","04:40",0.0,-1.4,69.3,1002.9,281.1,1.2,2.8,253.4,0.00,-6.2,6.0,"04:39:46",1
"24/01/24","04:50",0.0,-1.4,69.2,1002.9,313.0,1.8,4.4,322.6,0.00,-6.3,6.1,"04:41:04",1
"24/01/24","05:00",0.0,-1.5,69.1,1003.1,310.0,2.0,3.5,306.7,0.00,-6.4,5.8,"04:58:56",1
"24/01/24","05:10",0.0,-1.6,69.1,1002.9,288.8,1.0,2.2,342.2,0.00,-6.5,5.9,"05:06:20",1
"24/01/24","05:20",0.0,-1.7,69.4,1003.4,297.4,1.3,3.1,328.6,0.00,-6.5,5.7,"05:13:44",1
"24/01/24","05:30",0.0,-1.6,69.9,1003.6,304.8,1.8,5.0,338.9,0.00,-6.3,5.7,"05:23:46",1
"24/01/24","05:40",0.0,-1.4,69.8,1003.6,287.1,2.0,3.2,317.3,0.00,-6.2,5.8,"05:34:32",1
"24/01/24","05:50",0.0,-1.4,69.5,1003.8,272.3,1.1,2.5,283.4,0.00,-6.2,5.7,"05:45:44",1
"24/01/24","06:00",0.0,-1.5,69.6,1003.4,249.3,1.0,2.5,251.0,0.00,-6.3,5.7,"05:59:20",1
"24/01/24","06:10",0.0,-1.4,69.5,1003.6,279.2,1.3,3.3,337.2,0.00,-6.2,5.7,"06:03:28",1
"24/01/24","06:20",0.0,-1.5,69.5,1004.1,309.9,2.1,5.0,342.1,0.00,-6.3,5.6,"06:15:12",1
"24/01/24","06:30",0.0,-1.5,70.0,1003.6,307.3,2.3,5.4,338.4,0.00,-6.2,5.5,"06:29:36",1
"24/01/24","06:40",0.0,-1.5,70.0,1004.1,302.6,2.3,3.7,316.6,0.00,-6.2,5.4,"06:30:08",1
"24/01/24","06:50",0.0,-1.5,70.1,1003.8,299.2,1.8,3.4,335.8,0.00,-6.2,5.5,"06:41:12",1
"24/01/24","07:00",0.0,-1.6,70.5,1004.1,299.6,2.0,3.7,311.9,0.00,-6.2,5.3,"06:55:44",1
"24/01/24","07:10",0.0,-1.7,70.8,1004.1,298.8,2.0,3.3,327.5,0.00,-6.3,5.5,"07:02:00",1
"24/01/24","07:20",0.0,-1.6,71.1,1004.5,266.5,2.1,5.4,313.9,0.00,-6.1,5.4,"07:16:48",1
"24/01/24","07:30",0.0,-1.6,71.3,1004.8,286.7,1.7,2.8,326.8,0.00,-6.1,5.2,"07:28:32",1
"24/01/24","07:40",0.0,-1.5,71.4,1004.5,282.1,1.8,3.5,275.7,0.00,-6.0,5.3,"07:33:44",1
"24/01/24","07:50",0.0,-1.5,71.3,1004.3,303.4,2.2,5.7,344.7,0.00,-6.0,5.3,"07:45:44",1
"24/01/24","08:00",0.0,-1.5,71.6,1004.8,306.1,1.3,3.7,331.2,0.00,-5.9,5.4,"07:51:36",1
"24/01/24","08:10",0.0,-1.4,71.9,1005.0,292.1,2.0,3.5,315.8,0.00,-5.8,5.2,"08:04:08",1
"24/01/24","08:20",0.0,-1.2,71.8,1005.0,281.3,2.2,5.9,287.4,0.01,-5.6,5.3,"08:18:24",1
"24/01/24","08:30",0.0,-0.9,71.6,1004.8,283.9,2.1,3.6,333.4,0.03,-5.3,5.3,"08:25:28",1
"24/01/24","08:40",0.0,-0.8,70.8,1005.2,287.9,2.8,4.8,331.6,0.07,-5.4,5.2,"08:39:04",1
"24/01/24","08:50",0.0,-0.7,71.2,1005.2,285.8,2.5,4.7,258.1,0.06,-5.2,5.3,"08:44:00",1
"24/01/24","09:00",0.0,-0.7,71.9,1005.5,286.4,1.7,4.2,305.4,0.06,-5.1,5.2,"08:55:36",1
"24/01/24","09:10",0.0,-0.3,71.8,1005.7,294.7,1.8,3.6,320.8,0.11,-4.7,5.3,"09:06:38",1
"24/01/24","09:20",0.0,-0.1,70.2,1005.7,257.8,1.8,4.2,240.5,0.11,-4.8,5.2,"09:17:06",1
"24/01/24","09:30",0.0,0.6,68.4,1006.0,247.0,1.7,3.6,253.0,0.19,-4.5,5.4,"09:26:48",1
"24/01/24","09:40",0.0,1.0,66.7,1006.2,255.4,2.0,3.2,271.8,0.22,-4.5,5.2,"09:38:16",1
"24/01/24","09:50",0.0,1.3,64.2,1006.4,289.8,2.2,4.8,243.2,0.24,-4.7,5.3,"09:43:04",1
"24/01/24","10:00",0.0,1.1,63.5,1006.4,277.8,2.6,5.6,239.0,0.14,-5.0,5.5,"09:58:10",1
"24/01/24","10:10",0.0,0.9,65.4,1006.7,236.9,3.2,6.5,228.6,0.11,-4.8,5.5,"10:01:24",1
"24/01/24","10:20",0.0,0.8,66.6,1006.0,265.6,1.8,4.0,290.9,0.08,-4.7,5.3,"10:11:12",1
"24/01/24","10:30",0.0,1.7,66.1,1006.7,275.6,2.0,4.0,270.9,0.22,-3.9,5.4,"10:26:40",1
"24/01/24","10:40",0.0,2.4,64.6,1006.4,287.2,3.2,7.8,339.4,0.33,-3.5,5.3,"10:37:12",1
"24/01/24","10:50",0.0,1.8,66.5,1006.4,289.8,4.2,7.3,313.4,0.24,-3.7,5.6,"10:49:20",1
"24/01/24","11:00",0.0,2.1,69.3,1006.0,286.4,4.4,7.0,309.5,0.43,-2.9,5.5,"10:55:12",1
"24/01/24","11:10",0.0,2.0,68.1,1006.4,294.0,5.4,11.8,315.0,0.40,-3.2,5.3,"11:09:28",1
"24/01/24","11:20",0.0,2.3,68.1,1006.2,303.4,6.0,9.3,299.1,0.50,-2.9,5.7,"11:13:52",1
"24/01/24","11:30",0.0,3.1,67.6,1006.4,312.6,5.7,9.8,341.8,0.51,-2.3,5.6,"11:20:08",1
"24/01/24","11:40",0.0,3.0,67.1,1006.7,314.1,5.0,10.4,320.9,0.37,-2.5,5.9,"11:31:44",1
"24/01/24","11:50",0.0,2.5,71.5,1006.0,322.0,5.4,9.4,333.1,0.35,-2.1,5.8,"11:47:06",1
"24/01/24","12:00",0.0,2.4,72.0,1006.0,312.0,5.5,9.4,328.7,0.40,-2.1,6.2,"11:59:12",1
"24/01/24","12:10",0.0,2.2,73.4,1006.0,300.6,5.6,10.2,330.1,0.33,-2.0,6.0,"12:08:48",1
"24/01/24","12:20",0.0,2.9,73.1,1005.7,304.2,5.4,8.6,346.3,0.50,-1.4,5.9,"12:12:32",1
"24/01/24","12:30",0.0,2.4,71.6,1005.7,324.7,5.6,9.1,333.3,0.19,-2.2,6.0,"12:22:42",1
"24/01/24","12:40",0.0,2.0,75.0,1005.2,333.1,5.1,10.1,317.5,0.28,-1.9,6.1,"12:38:44",1
"24/01/24","12:50",0.0,2.6,74.1,1005.2,323.7,6.5,10.3,313.4,0.36,-1.5,6.3,"12:46:56",1
"24/01/24","13:00",0.0,3.3,69.4,1005.5,312.3,6.1,9.5,335.4,0.40,-1.7,6.3,"12:57:04",1
"24/01/24","13:10",0.0,1.8,74.3,1005.2,314.7,5.7,10.2,321.5,0.15,-2.2,6.4,"13:03:40",1
"24/01/24","13:20",0.0,2.7,76.9,1005.2,322.0,5.4,7.9,332.4,0.44,-0.9,6.3,"13:16:50",1
"24/01/24","13:30",0.0,2.8,75.9,1005.2,306.5,5.2,9.3,317.0,0.37,-1.0,6.4,"13:29:26",1
"24/01/24","13:40",0.0,1.9,78.1,1005.5,315.1,5.7,9.3,320.7,0.11,-1.5,6.6,"13:32:20",1
"24/01/24","13:50",0.0,1.4,79.8,1005.7,297.5,4.1,5.7,345.2,0.11,-1.7,6.5,"13:49:14",1
"24/01/24","14:00",0.0,1.1,82.2,1005.5,287.9,3.6,7.8,304.2,0.07,-1.6,6.3,"13:59:08",1
"24/01/24","14:10",0.0,0.8,85.0,1005.2,276.1,3.0,6.0,311.3,0.07,-1.4,6.7,"14:02:14",1
"24/01/24","14:20",0.0,0.7,87.5,1005.2,309.3,3.7,6.6,345.7,0.08,-1.1,6.7,"14:10:36",1
"24/01/24","14:30",0.0,0.9,89.2,1005.5,294.9,3.1,4.2,304.0,0.12,-0.6,6.7,"14:23:58",1
"24/01/24","14:40",0.0,1.2,90.3,1005.0,306.5,3.5,7.8,340.1,0.17,-0.2,6.7,"14:39:34",1
"24/01/24","14:50",0.0,1.2,90.7,1005.5,298.6,4.0,7.0,316.7,0.11,-0.1,6.7,"14:49:22",1
"24/01/24","15:00",0.2,1.2,91.1,1005.7,293.2,3.0,4.5,313.7,0.05,0.0,6.4,"14:54:46",1
"24/01/24","15:10",0.0,1.2,91.1,1005.5,309.8,4.0,6.7,316.1,0.11,0.0,6.5,"15:06:58",1
"24/01/24","15:20",0.0,1.4,90.6,1006.0,305.0,5.9,11.1,318.0,0.06,0.1,6.5,"15:12:14",1
"24/01/24","15:30",0.0,1.3,90.2,1006.0,297.1,5.9,9.7,336.9,0.06,-0.1,6.5,"15:29:46",1
"24/01/24","15:40",0.0,1.4,89.3,1006.0,307.4,6.5,9.6,313.4,0.05,-0.1,6.7,"15:32:32",1
"24/01/24","15:50",0.0,1.2,88.5,1006.2,321.0,5.9,8.7,328.5,0.03,-0.4,6.7,"15:40:36",1
"24/01/24","16:00",0.0,1.0,87.7,1006.2,334.2,6.6,8.9,321.2,0.03,-0.8,6.6,"15:54:10",1
"24/01/24","16:10",0.0,1.1,86.5,1006.2,335.2,6.1,6.5,327.2,0.02,-0.9,6.6,"16:09:28",1
"24/01/24","16:20",0.0,1.1,85.6,1005.7,325.5,10.3,14.9,340.9,0.02,-1.0,6.4,"16:14:44",1
"24/01/24","16:30",0.0,1.2,85.2,1006.2,315.4,6.8,9.7,313.1,0.00,-1.0,6.4,"16:26:28",1
"24/01/24","16:40",0.0,0.9,85.6,1006.7,287.0,4.0,6.2,274.8,0.00,-1.2,6.6,"16:35:44",1
"24/01/24","16:50",0.0,0.5,87.2,1006.7,309.2,4.6,7.5,1.4,0.00,-1.3,6.6,"16:43:04",1
"24/01/24","17:00",0.0,0.5,88.4,1006.9,305.7,4.1,6.6,299.6,0.00,-1.2,6.5,"16:51:48",1
"24/01/24","17:10",0.0,0.4,89.1,1006.7,317.6,5.2,9.1,326.8,0.00,-1.1,6.4,"17:08:08",1
"24/01/24","17:20",0.0,0.1,90.1,1007.1,306.9,5.2,8.9,335.3,0.00,-1.3,6.6,"17:11:46",1
"24/01/24","17:30",0.0,-0.1,90.9,1006.9,305.4,5.1,8.2,334.1,0.00,-1.4,6.6,"17:23:22",1
"24/01/24","17:40",0.0,-0.1,91.4,1006.7,307.2,5.1,10.4,330.1,0.00,-1.3,6.5,"17:31:12",1
"24/01/24","17:50",0.0,0.0,91.7,1007.4,308.8,4.4,7.1,320.1,0.00,-1.1,6.4,"17:49:12",1
"24/01/24","18:00",0.0,0.0,91.9,1006.9,302.3,3.9,7.1,341.6,0.00,-1.1,6.2,"17:58:40",1
"24/01/24","18:10",0.0,-0.1,92.4,1007.4,300.5,4.1,6.5,339.0,0.00,-1.1,6.4,"18:04:56",1
"24/01/24","18:20",0.0,-0.1,92.7,1007.4,299.4,4.0,6.5,326.9,0.00,-1.1,6.3,"18:12:48",1
"24/01/24","18:30",0.0,-0.1,93.0,1007.8,291.5,4.2,7.2,329.8,0.00,-1.1,6.1,"18:24:00",1
"24/01/24","18:40",0.0,-0.1,93.2,1007.6,297.7,4.4,7.3,312.6,0.00,-1.0,6.3,"18:33:28",1
"24/01/24","18:50",0.0,-0.1,93.5,1007.8,311.8,5.0,8.9,328.5,0.00,-1.0,6.3,"18:42:16",1
"24/01/24","19:00",0.0,-0.1,93.8,1008.3,313.3,4.9,8.3,340.4,0.00,-0.9,6.2,"18:52:48",1
"24/01/24","19:10",0.0,0.0,94.1,1008.3,310.0,4.0,6.5,323.6,0.00,-0.8,6.3,"19:02:16",1
"24/01/24","19:20",0.0,-0.1,94.3,1008.3,298.7,3.0,4.8,295.8,0.00,-0.9,5.9,"19:19:28",1
"24/01/24","19:30",0.0,-0.1,94.7,1008.6,302.3,3.4,5.4,312.0,0.00,-0.8,6.3,"19:25:52",1
"24/01/24","19:40",0.0,-0.3,94.9,1008.6,298.9,3.7,6.4,316.6,0.00,-1.0,6.2,"19:36:24",1
"24/01/24","19:50",0.0,-0.3,95.2,1008.6,304.8,3.9,6.3,295.0,0.00,-0.9,6.1,"19:49:44",1
"24/01/24","20:00",0.0,-0.2,95.3,1008.8,300.7,3.9,8.1,314.3,0.00,-0.8,6.1,"19:50:08",1
"24/01/24","20:10",0.0,-0.3,95.5,1008.6,298.4,4.4,7.1,325.8,0.00,-0.9,6.2,"20:06:40",1
"24/01/24","20:20",0.0,-0.3,95.7,1008.6,295.4,4.5,7.3,331.1,0.00,-0.9,6.1,"20:11:04",1
"24/01/24","20:30",0.0,-0.3,95.8,1009.3,300.5,4.7,7.5,315.8,0.00,-0.8,6.0,"20:26:00",1
"24/01/24","20:40",0.0,-0.2,95.9,1009.0,295.5,4.0,6.3,328.1,0.00,-0.7,6.0,"20:32:08",1
"24/01/24","20:50",0.0,-0.3,96.0,1009.0,296.4,3.9,6.2,315.0,0.00,-0.8,5.9,"20:46:24",1
"24/01/24","21:00",0.0,-0.4,96.0,1009.3,296.5,4.7,7.0,305.6,0.00,-0.9,6.0,"20:53:44",1
"24/01/24","21:10",0.0,-0.2,96.0,1009.5,297.9,4.5,7.4,311.2,0.00,-0.7,6.0,"21:06:48",1
"24/01/24","21:20",0.0,-0.3,96.2,1009.3,305.8,4.7,8.8,320.5,0.00,-0.8,5.9,"21:19:14",1
"24/01/24","21:30",0.0,-0.4,96.3,1009.5,297.4,4.4,7.3,291.8,0.00,-0.9,6.0,"21:25:54",1
"24/01/24","21:40",0.0,-0.5,96.5,1009.5,309.0,4.7,8.0,331.7,0.00,-0.9,6.0,"21:36:40",1
"24/01/24","21:50",0.0,-0.4,96.6,1009.5,306.4,4.6,6.5,321.7,0.00,-0.8,5.9,"21:42:16",1
"24/01/24","22:00",0.0,-0.4,96.7,1010.0,305.0,4.0,6.0,302.8,0.00,-0.8,6.0,"21:56:32",1
"24/01/24","22:10",0.0,-0.5,96.7,1009.5,292.9,3.7,5.9,307.4,0.00,-0.9,6.1,"22:05:54",1
"24/01/24","22:20",0.0,-0.4,96.9,1009.5,291.8,3.9,5.1,324.8,0.00,-0.8,5.9,"22:12:18",1
"24/01/24","22:30",0.0,-0.4,96.9,1009.7,295.6,3.7,6.4,334.5,0.00,-0.8,5.8,"22:27:14",1
"24/01/24","22:40",0.0,-0.6,96.9,1009.7,303.6,3.6,5.5,320.0,0.00,-1.0,5.8,"22:32:00",1
"24/01/24","22:50",0.0,-0.4,97.0,1010.2,289.1,3.4,4.7,263.7,0.00,-0.8,6.0,"22:40:48",1
"24/01/24","23:00",0.0,-0.3,97.0,1010.2,300.7,2.8,5.1,335.1,0.00,-0.7,5.9,"22:51:14",1
"24/01/24","23:10",0.0,-0.5,97.0,1010.0,309.5,3.4,4.5,316.6,0.00,-0.9,5.8,"23:05:28",1
"24/01/24","23:20",0.0,-0.5,97.3,1010.0,296.6,4.1,6.6,327.8,0.00,-0.8,5.7,"23:18:18",1
"24/01/24","23:30",0.0,-0.3,97.3,1010.0,298.5,3.2,5.1,308.3,0.00,-0.6,5.8,"23:25:10",1
"24/01/24","23:40",0.0,-0.4,97.3,1010.2,301.1,2.8,4.3,316.6,0.00,-0.7,5.8,"23:37:38",1
"24/01/24","23:50",0.0,-0.5,97.4,1010.0,300.7,3.4,4.4,295.4,0.00,-0.8,5.6,"23:47:40",1
"24/01/24","24:00",0.0,-0.6,97.5,1010.0,295.0,3.6,5.2,326.2,0.00,-0.9,5.8,"23:50:48",1
